Overview Statistics Trail Chart Weather Telemetry Raw packets
 

This is the latest recevied weather packets stored in our database for station/object KQ7A. If no packets are shown the sender has not sent any weather packets the latest 10 day(s).

<< 60 61 62 63 64 65 66 >>
Time Temp. Humidity Pressure Rain* Wind** Luminosity Snow
1788265892 11.67° C 39% 1015.3 hPa 0 mm - 0 W/m² -
1788265590 12.22° C 43% 1015.2 hPa 0 mm - 0 W/m² -
1788265285 12.22° C 38% 1015.2 hPa 0 mm - 0 W/m² -
1788264979 12.22° C 41% 1015.1 hPa 0 mm - 0 W/m² -
1788264675 13.33° C 37% 1015.1 hPa 0 mm - 0 W/m² -
1788264369 13.33° C 35% 1015.2 hPa 0 mm - 0 W/m² -
1788264064 12.78° C 38% 1015 hPa 0 mm - 0 W/m² -
1788263760 12.78° C 38% 1015.1 hPa 0 mm - 0 W/m² -
1788263456 12.78° C 40% 1015 hPa 0 mm - 0 W/m² -
1788263152 12.78° C 38% 1015 hPa 0 mm - 0 W/m² -
1788262851 12.78° C 40% 1014.8 hPa 0 mm - 0 W/m² -
1788262550 12.78° C 37% 1015 hPa 0 mm - 0 W/m² -
1788262245 13.89° C 40% 1015 hPa 0 mm - 0 W/m² -
1788261939 13.89° C 37% 1014.8 hPa 0 mm - 0 W/m² -
1788261635 13.89° C 36% 1014.7 hPa 0 mm - 0 W/m² -
1788261333 14.44° C 37% 1014.6 hPa 0 mm - 0 W/m² -
1788261032 15° C 35% 1015.1 hPa 0 mm - 0 W/m² -
1788260728 15° C 36% 1014.7 hPa 0 mm - 0 W/m² -
1788260423 15° C 35% 1014.8 hPa 0 mm - 0 W/m² -
1788260119 15° C 36% 1015.1 hPa 0 mm - 0 W/m² -
1788259813 15.56° C 34% 1015 hPa 0 mm - 0 W/m² -
1788259509 15.56° C 33% 1015 hPa 0 mm - 0 W/m² -
1788259204 15.56° C 36% 1014.8 hPa 0 mm - 0 W/m² -
1788258898 15° C 34% 1015 hPa 0 mm - 0 W/m² -
1788258594 16.11° C 33% 1014.7 hPa 0 mm - 0 W/m² -

* Rain latest hour (hover to see other rain measurements)
** Current wind speed in m/s (hover to see current wind gust speed)